Year,Month,Day,Hour,Minute,Value (Times are PST for windspeed in km/hr)
2008,02,05,00,00,11.00
2008,02,05,00,01,15.10
2008,02,05,00,02,13.30
2008,02,05,00,03,11.40
2008,02,05,00,04,15.20
2008,02,05,00,05,14.70
2008,02,05,00,06,18.30
2008,02,05,00,07,16.70
2008,02,05,00,08,18.50
2008,02,05,00,09,15.90
2008,02,05,00,10,19.50
2008,02,05,00,11,20.00
2008,02,05,00,12,18.30
2008,02,05,00,13,17.80
2008,02,05,00,14,17.90
2008,02,05,00,15,13.80
2008,02,05,00,16,15.60
2008,02,05,00,17,14.00
2008,02,05,00,18,17.20
2008,02,05,00,19,13.70
2008,02,05,00,20,19.50
2008,02,05,00,21,15.60
2008,02,05,00,22,12.70
2008,02,05,00,23,14.90
2008,02,05,00,24,17.50
2008,02,05,00,25,17.90
2008,02,05,00,26,23.10
2008,02,05,00,27,22.10
2008,02,05,00,28,16.20
2008,02,05,00,29,23.90
2008,02,05,00,30,17.90
2008,02,05,00,31,18.30
2008,02,05,00,32,21.60
2008,02,05,00,33,20.00
2008,02,05,00,34,12.70
2008,02,05,00,35,13.90
2008,02,05,00,36,10.40
2008,02,05,00,37,11.70
2008,02,05,00,38,17.60
2008,02,05,00,39,13.40
2008,02,05,00,40,16.80
2008,02,05,00,41,15.60
2008,02,05,00,42,15.60
2008,02,05,00,43,15.30
2008,02,05,00,44,22.80
2008,02,05,00,45,21.00
2008,02,05,00,46,18.00
2008,02,05,00,47,10.70
2008,02,05,00,48,15.00
2008,02,05,00,49,11.90
2008,02,05,00,50,14.50
2008,02,05,00,51,18.50
2008,02,05,00,52,18.90
2008,02,05,00,53,17.60
2008,02,05,00,54,18.50
2008,02,05,00,55,12.90
2008,02,05,00,56,17.10
2008,02,05,00,57,14.00
2008,02,05,00,58,18.30
2008,02,05,00,59,20.20
2008,02,05,01,00,19.00
2008,02,05,01,01,19.50
2008,02,05,01,02,17.50
2008,02,05,01,03,12.70
2008,02,05,01,04,21.50
2008,02,05,01,05,14.20
2008,02,05,01,06,16.40
2008,02,05,01,07,14.30
2008,02,05,01,08,12.60
2008,02,05,01,09,15.80
2008,02,05,01,10,18.60
2008,02,05,01,11,15.30
2008,02,05,01,12,12.80
2008,02,05,01,13,16.90
2008,02,05,01,14,14.30
2008,02,05,01,15,20.10
2008,02,05,01,16,15.70
2008,02,05,01,17,20.10
2008,02,05,01,18,11.70
2008,02,05,01,19,16.60
2008,02,05,01,20,16.60
2008,02,05,01,21,19.20
2008,02,05,01,22,19.80
2008,02,05,01,23,24.90
2008,02,05,01,24,21.00
2008,02,05,01,25,20.50
2008,02,05,01,26,21.40
2008,02,05,01,27,20.70
2008,02,05,01,28,17.00
2008,02,05,01,29,13.00
2008,02,05,01,30,19.60
2008,02,05,01,31,19.80
2008,02,05,01,32,21.40
2008,02,05,01,33,15.50
2008,02,05,01,34,22.00
2008,02,05,01,35,17.50
2008,02,05,01,36,13.80
2008,02,05,01,37,17.90
2008,02,05,01,38,18.70
2008,02,05,01,39,17.20
2008,02,05,01,40,17.50
2008,02,05,01,41,20.20
2008,02,05,01,42,14.00
2008,02,05,01,43,18.60
2008,02,05,01,44,17.50
2008,02,05,01,45,20.80
2008,02,05,01,46,17.70
2008,02,05,01,47,23.30
2008,02,05,01,48,18.70
2008,02,05,01,49,18.90
2008,02,05,01,50,12.20
2008,02,05,01,51,18.70
2008,02,05,01,52,15.10
2008,02,05,01,53,16.30
2008,02,05,01,54,14.70
2008,02,05,01,55,18.70
2008,02,05,01,56,22.40
2008,02,05,01,57,15.80
2008,02,05,01,58,20.50
2008,02,05,01,59,11.90
2008,02,05,02,00,18.50
2008,02,05,02,01,21.60
2008,02,05,02,02,21.20
2008,02,05,02,03,21.40
2008,02,05,02,04,17.90
2008,02,05,02,05,19.40
2008,02,05,02,06,23.70
2008,02,05,02,07,21.60
2008,02,05,02,08,17.80
2008,02,05,02,09,22.70
2008,02,05,02,10,18.30
2008,02,05,02,11,17.60
2008,02,05,02,12,12.90
2008,02,05,02,13,24.50
2008,02,05,02,14,15.70
2008,02,05,02,15,16.30
2008,02,05,02,16,13.80
2008,02,05,02,17,15.90
2008,02,05,02,18,18.30
2008,02,05,02,19,19.40
2008,02,05,02,20,21.60
2008,02,05,02,21,19.80
2008,02,05,02,22,19.70
2008,02,05,02,23,21.80
2008,02,05,02,24,21.00
2008,02,05,02,25,18.20
2008,02,05,02,26,22.30
2008,02,05,02,27,15.60
2008,02,05,02,28,19.40
2008,02,05,02,29,19.60
2008,02,05,02,30,18.60
2008,02,05,02,31,14.80
2008,02,05,02,32,22.40
2008,02,05,02,33,17.90
2008,02,05,02,34,19.20
2008,02,05,02,35,23.40
2008,02,05,02,36,22.50
2008,02,05,02,37,17.70
2008,02,05,02,38,20.80
2008,02,05,02,39,17.80
2008,02,05,02,40,18.50
2008,02,05,02,41,21.30
2008,02,05,02,42,17.50
2008,02,05,02,43,19.90
2008,02,05,02,44,20.60
2008,02,05,02,45,15.30
2008,02,05,02,46,24.30
2008,02,05,02,47,17.70
2008,02,05,02,48,24.30
2008,02,05,02,49,17.70
2008,02,05,02,50,20.00
2008,02,05,02,51,17.90
2008,02,05,02,52,15.00
2008,02,05,02,53,21.00
2008,02,05,02,54,24.10
2008,02,05,02,55,22.20
2008,02,05,02,56,23.00
2008,02,05,02,57,20.50
2008,02,05,02,58,19.60
2008,02,05,02,59,20.00
2008,02,05,03,00,9.90
2008,02,05,03,01,15.10
2008,02,05,03,02,18.20
2008,02,05,03,03,15.80
2008,02,05,03,04,19.00
2008,02,05,03,05,22.30
2008,02,05,03,06,13.30
2008,02,05,03,07,19.80
2008,02,05,03,08,16.20
2008,02,05,03,09,16.30
2008,02,05,03,10,13.30
2008,02,05,03,11,13.50
2008,02,05,03,12,14.10
2008,02,05,03,13,21.00
2008,02,05,03,14,20.10
2008,02,05,03,15,24.10
2008,02,05,03,16,20.00
2008,02,05,03,17,17.20
2008,02,05,03,18,13.90
2008,02,05,03,19,15.10
2008,02,05,03,20,17.10
2008,02,05,03,21,20.90
2008,02,05,03,22,17.80
2008,02,05,03,23,14.70
2008,02,05,03,24,15.20
2008,02,05,03,25,19.10
2008,02,05,03,26,23.90
2008,02,05,03,27,17.50
2008,02,05,03,28,12.30
2008,02,05,03,29,10.00
2008,02,05,03,30,16.00
2008,02,05,03,31,20.00
2008,02,05,03,32,22.70
2008,02,05,03,33,16.30
2008,02,05,03,34,25.70
2008,02,05,03,35,12.80
2008,02,05,03,36,19.80
2008,02,05,03,37,16.40
2008,02,05,03,38,20.80
2008,02,05,03,39,19.50
2008,02,05,03,40,22.00
2008,02,05,03,41,20.30
2008,02,05,03,42,19.80
2008,02,05,03,43,17.00
2008,02,05,03,44,21.50
2008,02,05,03,45,22.20
2008,02,05,03,46,18.80
2008,02,05,03,47,17.40
2008,02,05,03,48,20.60
2008,02,05,03,49,20.70
2008,02,05,03,50,20.50
2008,02,05,03,51,24.40
2008,02,05,03,52,20.90
2008,02,05,03,53,20.60
2008,02,05,03,54,15.30
2008,02,05,03,55,19.60
2008,02,05,03,56,19.70
2008,02,05,03,57,20.50
2008,02,05,03,58,21.10
2008,02,05,03,59,16.40
2008,02,05,04,00,18.30
2008,02,05,04,01,21.60
2008,02,05,04,02,20.00
2008,02,05,04,03,19.20
2008,02,05,04,04,18.50
2008,02,05,04,05,16.80
2008,02,05,04,06,21.50
2008,02,05,04,07,15.40
2008,02,05,04,08,15.50
2008,02,05,04,09,13.00
2008,02,05,04,10,23.00
2008,02,05,04,11,18.30
2008,02,05,04,12,20.90
2008,02,05,04,13,13.70
2008,02,05,04,14,20.50
2008,02,05,04,15,18.20
2008,02,05,04,16,17.00
2008,02,05,04,17,16.50
2008,02,05,04,18,18.40
2008,02,05,04,19,17.90
2008,02,05,04,20,11.30
2008,02,05,04,21,15.30
2008,02,05,04,22,12.70
2008,02,05,04,23,10.90
2008,02,05,04,24,19.00
2008,02,05,04,25,13.00
2008,02,05,04,26,18.70
2008,02,05,04,27,17.80
2008,02,05,04,28,17.10
2008,02,05,04,29,20.30
2008,02,05,04,30,18.60
2008,02,05,04,31,14.30
2008,02,05,04,32,16.40
2008,02,05,04,33,18.70
2008,02,05,04,34,23.20
2008,02,05,04,35,11.70
2008,02,05,04,36,18.20
2008,02,05,04,37,19.20
2008,02,05,04,38,14.60
2008,02,05,04,39,22.50
2008,02,05,04,40,13.10
2008,02,05,04,41,13.90
2008,02,05,04,42,13.20
2008,02,05,04,43,16.50
2008,02,05,04,44,24.20
2008,02,05,04,45,22.40
2008,02,05,04,46,16.20
2008,02,05,04,47,16.00
2008,02,05,04,48,21.40
2008,02,05,04,49,21.10
2008,02,05,04,50,15.60
2008,02,05,04,51,18.10
2008,02,05,04,52,14.00
2008,02,05,04,53,19.80
2008,02,05,04,54,22.30
2008,02,05,04,55,16.80
2008,02,05,04,56,14.40
2008,02,05,04,57,14.70
2008,02,05,04,58,18.90
2008,02,05,04,59,24.70
2008,02,05,05,00,18.70
2008,02,05,05,01,11.60
2008,02,05,05,02,14.60
2008,02,05,05,03,14.00
2008,02,05,05,04,16.30
2008,02,05,05,05,14.00
2008,02,05,05,06,14.90
2008,02,05,05,07,17.70
2008,02,05,05,08,17.20
2008,02,05,05,09,14.20
2008,02,05,05,10,13.20
2008,02,05,05,11,17.20
2008,02,05,05,12,18.40
2008,02,05,05,13,16.00
2008,02,05,05,14,16.10
2008,02,05,05,15,14.90
2008,02,05,05,16,6.80
2008,02,05,05,17,7.80
2008,02,05,05,18,11.10
2008,02,05,05,19,15.70
2008,02,05,05,20,17.30
2008,02,05,05,21,17.30
2008,02,05,05,22,17.10
2008,02,05,05,23,14.60
2008,02,05,05,24,13.80
2008,02,05,05,25,15.60
2008,02,05,05,26,15.40
2008,02,05,05,27,9.10
2008,02,05,05,28,14.20
2008,02,05,05,29,10.40
2008,02,05,05,30,14.30
2008,02,05,05,31,14.20
2008,02,05,05,32,18.40
2008,02,05,05,33,16.80
2008,02,05,05,34,15.80
2008,02,05,05,35,13.40
2008,02,05,05,36,20.00
2008,02,05,05,37,15.90
2008,02,05,05,38,14.90
2008,02,05,05,39,19.70
2008,02,05,05,40,16.50
2008,02,05,05,41,16.70
2008,02,05,05,42,19.50
2008,02,05,05,43,18.00
2008,02,05,05,44,22.20
2008,02,05,05,45,20.20
2008,02,05,05,46,20.30
2008,02,05,05,47,21.20
2008,02,05,05,48,15.30
2008,02,05,05,49,14.10
2008,02,05,05,50,16.90
2008,02,05,05,51,14.40
2008,02,05,05,52,17.90
2008,02,05,05,53,16.50
2008,02,05,05,54,14.00
2008,02,05,05,55,18.90
2008,02,05,05,56,21.70
2008,02,05,05,57,13.10
2008,02,05,05,58,8.40
2008,02,05,05,59,13.60
2008,02,05,06,00,18.70
2008,02,05,06,01,17.00
2008,02,05,06,02,25.90
2008,02,05,06,03,22.40
2008,02,05,06,04,17.00
2008,02,05,06,05,16.60
2008,02,05,06,06,18.80
2008,02,05,06,07,22.60
2008,02,05,06,08,22.60
2008,02,05,06,09,16.40
2008,02,05,06,10,21.00
2008,02,05,06,11,19.00
2008,02,05,06,12,18.30
2008,02,05,06,13,28.20
2008,02,05,06,14,24.80
2008,02,05,06,15,13.90
2008,02,05,06,16,27.00
2008,02,05,06,17,25.40
2008,02,05,06,18,27.60
2008,02,05,06,19,16.80
2008,02,05,06,20,21.70
2008,02,05,06,21,25.70
2008,02,05,06,22,23.80
2008,02,05,06,23,20.10
2008,02,05,06,24,23.00
2008,02,05,06,25,24.50
2008,02,05,06,26,22.30
2008,02,05,06,27,23.40
2008,02,05,06,28,16.20
2008,02,05,06,29,22.00
2008,02,05,06,30,24.50
2008,02,05,06,31,22.50
2008,02,05,06,32,19.10
2008,02,05,06,33,26.10
2008,02,05,06,34,29.00
2008,02,05,06,35,22.00
2008,02,05,06,36,22.90
2008,02,05,06,37,25.20
2008,02,05,06,38,16.50
2008,02,05,06,39,22.00
2008,02,05,06,40,19.70
2008,02,05,06,41,17.40
2008,02,05,06,42,14.20
2008,02,05,06,43,29.40
2008,02,05,06,44,24.50
2008,02,05,06,45,22.10
2008,02,05,06,46,23.30
2008,02,05,06,47,20.70
2008,02,05,06,48,18.70
2008,02,05,06,49,13.00
2008,02,05,06,50,15.80
2008,02,05,06,51,19.40
2008,02,05,06,52,14.10
2008,02,05,06,53,17.20
2008,02,05,06,54,16.20
2008,02,05,06,55,24.80
2008,02,05,06,56,16.40
2008,02,05,06,57,22.70
2008,02,05,06,58,23.30
2008,02,05,06,59,25.60
2008,02,05,07,00,20.00
2008,02,05,07,01,22.10
2008,02,05,07,02,13.80
2008,02,05,07,03,20.50
2008,02,05,07,04,22.20
2008,02,05,07,05,16.20
2008,02,05,07,06,20.70
2008,02,05,07,07,15.20
2008,02,05,07,08,17.80
2008,02,05,07,09,18.00
2008,02,05,07,10,20.80
2008,02,05,07,11,12.40
2008,02,05,07,12,14.80
2008,02,05,07,13,18.70
2008,02,05,07,14,19.00
2008,02,05,07,15,11.80
2008,02,05,07,16,11.00
2008,02,05,07,17,16.90
2008,02,05,07,18,17.00
2008,02,05,07,19,18.50
2008,02,05,07,20,21.40
2008,02,05,07,21,23.50
2008,02,05,07,22,13.20
2008,02,05,07,23,19.70
2008,02,05,07,24,16.20
2008,02,05,07,25,15.80
2008,02,05,07,26,13.10
2008,02,05,07,27,13.40
2008,02,05,07,28,18.60
2008,02,05,07,29,16.50
2008,02,05,07,30,14.70
2008,02,05,07,31,12.90
2008,02,05,07,32,13.90
2008,02,05,07,33,17.70
2008,02,05,07,34,16.30
2008,02,05,07,35,17.90
2008,02,05,07,36,14.40
2008,02,05,07,37,16.10
2008,02,05,07,38,17.70
2008,02,05,07,39,17.30
2008,02,05,07,40,24.40
2008,02,05,07,41,12.60
2008,02,05,07,42,15.30
2008,02,05,07,43,13.80
2008,02,05,07,44,17.00
2008,02,05,07,45,17.00
2008,02,05,07,46,14.70
2008,02,05,07,47,18.10
2008,02,05,07,48,20.70
2008,02,05,07,49,16.90
2008,02,05,07,50,16.90
2008,02,05,07,51,16.90
2008,02,05,07,52,13.40
2008,02,05,07,53,15.80
2008,02,05,07,54,16.80
2008,02,05,07,55,23.60
2008,02,05,07,56,14.20
2008,02,05,07,57,20.80
2008,02,05,07,58,21.70
2008,02,05,07,59,14.50
2008,02,05,08,00,19.60
2008,02,05,08,01,17.90
2008,02,05,08,02,11.80
2008,02,05,08,03,13.60
2008,02,05,08,04,10.40
2008,02,05,08,05,12.70
2008,02,05,08,06,14.90
2008,02,05,08,07,20.00
2008,02,05,08,08,14.30
2008,02,05,08,09,10.50
2008,02,05,08,10,18.60
2008,02,05,08,11,18.30
2008,02,05,08,12,22.60
2008,02,05,08,13,18.60
2008,02,05,08,14,15.70
2008,02,05,08,15,17.50
2008,02,05,08,16,13.90
2008,02,05,08,17,21.90
2008,02,05,08,18,16.70
2008,02,05,08,19,19.80
2008,02,05,08,20,23.40
2008,02,05,08,21,15.30
2008,02,05,08,22,13.30
2008,02,05,08,23,10.20
2008,02,05,08,24,13.50
2008,02,05,08,25,14.30
2008,02,05,08,26,14.70
2008,02,05,08,27,14.50
2008,02,05,08,28,21.80
2008,02,05,08,29,18.40
2008,02,05,08,30,20.90
2008,02,05,08,31,23.90
2008,02,05,08,32,19.40
2008,02,05,08,33,15.00
2008,02,05,08,34,22.00
2008,02,05,08,35,18.40
2008,02,05,08,36,17.10
2008,02,05,08,37,17.50
2008,02,05,08,38,19.30
2008,02,05,08,39,19.20
2008,02,05,08,40,20.70
2008,02,05,08,41,25.80
2008,02,05,08,42,15.30
2008,02,05,08,43,21.50
2008,02,05,08,44,22.60
2008,02,05,08,45,22.00
2008,02,05,08,46,20.30
2008,02,05,08,47,18.90
2008,02,05,08,48,14.60
2008,02,05,08,49,12.20
2008,02,05,08,50,18.00
2008,02,05,08,51,22.80
2008,02,05,08,52,25.80
2008,02,05,08,53,23.30
2008,02,05,08,54,23.00
2008,02,05,08,55,17.80
2008,02,05,08,56,22.30
2008,02,05,08,57,18.70
2008,02,05,08,58,18.30
2008,02,05,08,59,23.20
2008,02,05,09,00,19.00
2008,02,05,09,01,19.90
2008,02,05,09,02,21.40
2008,02,05,09,03,17.30
2008,02,05,09,04,23.30
2008,02,05,09,05,23.40
2008,02,05,09,06,16.90
2008,02,05,09,07,18.40
2008,02,05,09,08,17.00
2008,02,05,09,09,13.60
2008,02,05,09,10,12.90
2008,02,05,09,11,18.30
2008,02,05,09,12,21.10
2008,02,05,09,13,20.90
2008,02,05,09,14,23.40
2008,02,05,09,15,17.00
2008,02,05,09,16,17.30
2008,02,05,09,17,12.30
2008,02,05,09,18,21.20
2008,02,05,09,19,16.30
2008,02,05,09,20,14.60
2008,02,05,09,21,17.10
2008,02,05,09,22,17.70
2008,02,05,09,23,16.50
2008,02,05,09,24,17.70
2008,02,05,09,25,22.10
2008,02,05,09,26,18.40
2008,02,05,09,27,18.70
2008,02,05,09,28,18.80
2008,02,05,09,29,14.30
2008,02,05,09,30,14.60
2008,02,05,09,31,18.60
2008,02,05,09,32,20.40
2008,02,05,09,33,17.50
2008,02,05,09,34,19.60
2008,02,05,09,35,12.90
2008,02,05,09,36,16.40
2008,02,05,09,37,22.40
2008,02,05,09,38,16.40
2008,02,05,09,39,22.40
2008,02,05,09,40,19.80
2008,02,05,09,41,24.40
2008,02,05,09,42,19.80
2008,02,05,09,43,15.30
2008,02,05,09,44,18.00
2008,02,05,09,45,14.10
2008,02,05,09,46,18.60
2008,02,05,09,47,17.10
2008,02,05,09,48,12.80
2008,02,05,09,49,18.60
2008,02,05,09,50,22.70
2008,02,05,09,51,13.60
2008,02,05,09,52,15.00
2008,02,05,09,53,19.20
2008,02,05,09,54,13.50
2008,02,05,09,55,12.80
2008,02,05,09,56,14.10
2008,02,05,09,57,15.90
2008,02,05,09,58,12.10
2008,02,05,09,59,10.50
2008,02,05,10,00,12.30
2008,02,05,10,01,10.00
2008,02,05,10,02,6.60
2008,02,05,10,03,3.70
2008,02,05,10,04,9.50
2008,02,05,10,05,11.90
2008,02,05,10,06,14.20
2008,02,05,10,07,12.30
2008,02,05,10,08,12.10
2008,02,05,10,09,4.80
2008,02,05,10,10,8.90
2008,02,05,10,11,5.20
2008,02,05,10,12,2.80
2008,02,05,10,13,5.70
2008,02,05,10,14,7.40
2008,02,05,10,15,6.50
2008,02,05,10,16,8.90
2008,02,05,10,17,8.40
2008,02,05,10,18,13.00
2008,02,05,10,19,12.20
2008,02,05,10,20,11.20
2008,02,05,10,21,9.00
2008,02,05,10,22,8.90
2008,02,05,10,23,8.70
2008,02,05,10,24,7.40
2008,02,05,10,25,8.30
2008,02,05,10,26,8.50
2008,02,05,10,27,11.10
2008,02,05,10,28,9.00
2008,02,05,10,29,7.80
2008,02,05,10,30,6.50
2008,02,05,10,31,4.70
2008,02,05,10,32,7.30
2008,02,05,10,33,4.50
2008,02,05,10,34,5.60
2008,02,05,10,35,7.20
2008,02,05,10,36,6.50
2008,02,05,10,37,7.00
2008,02,05,10,38,7.10
2008,02,05,10,39,7.90
2008,02,05,10,40,4.90
2008,02,05,10,41,7.10
2008,02,05,10,42,9.30
2008,02,05,10,43,10.90
2008,02,05,10,44,8.90
2008,02,05,10,45,10.40
2008,02,05,10,46,17.10
2008,02,05,10,47,8.80
2008,02,05,10,48,18.20
2008,02,05,10,49,17.40
2008,02,05,10,50,13.20
2008,02,05,10,51,12.70
2008,02,05,10,52,9.30
2008,02,05,10,53,5.40
2008,02,05,10,54,5.10
2008,02,05,10,55,5.70
2008,02,05,10,56,8.70
2008,02,05,10,57,4.30
2008,02,05,10,58,6.30
2008,02,05,10,59,5.10
2008,02,05,11,00,5.40
2008,02,05,11,01,7.60
2008,02,05,11,02,10.10
2008,02,05,11,03,9.00
2008,02,05,11,04,5.70
2008,02,05,11,05,9.30
2008,02,05,11,06,6.80
2008,02,05,11,07,6.20
2008,02,05,11,08,6.30
2008,02,05,11,09,7.20
2008,02,05,11,10,10.60
2008,02,05,11,11,12.10
2008,02,05,11,12,9.50
2008,02,05,11,13,11.10
2008,02,05,11,14,8.50
2008,02,05,11,15,8.30
2008,02,05,11,16,3.90
2008,02,05,11,17,5.20
2008,02,05,11,18,4.00
2008,02,05,11,19,8.00
2008,02,05,11,20,8.40
2008,02,05,11,21,5.30
2008,02,05,11,22,3.00
2008,02,05,11,23,6.10
2008,02,05,11,24,7.80
2008,02,05,11,25,5.80
2008,02,05,11,26,8.00
2008,02,05,11,27,8.10
2008,02,05,11,28,8.10
2008,02,05,11,29,8.10
2008,02,05,11,30,8.20
2008,02,05,11,31,7.30
2008,02,05,11,32,5.60
2008,02,05,11,33,5.00
2008,02,05,11,34,6.80
2008,02,05,11,35,6.50
2008,02,05,11,36,7.10
2008,02,05,11,37,6.20
2008,02,05,11,38,5.60
2008,02,05,11,39,7.00
2008,02,05,11,40,7.30
2008,02,05,11,41,9.20
2008,02,05,11,42,4.40
2008,02,05,11,43,6.60
2008,02,05,11,44,7.10
2008,02,05,11,45,7.20
2008,02,05,11,46,9.30
2008,02,05,11,47,9.60
2008,02,05,11,48,9.00
2008,02,05,11,49,9.90
2008,02,05,11,50,14.70
2008,02,05,11,51,11.00
2008,02,05,11,52,6.70
2008,02,05,11,53,9.50
2008,02,05,11,54,8.10
2008,02,05,11,55,4.90
2008,02,05,11,56,8.90
2008,02,05,11,57,4.40
2008,02,05,11,58,5.20
2008,02,05,11,59,7.10
2008,02,05,12,00,7.30
2008,02,05,12,01,8.20
2008,02,05,12,02,9.30
2008,02,05,12,03,10.20
2008,02,05,12,04,8.60
2008,02,05,12,05,15.70
2008,02,05,12,06,11.80
2008,02,05,12,07,12.50
2008,02,05,12,08,11.60
2008,02,05,12,09,13.20
2008,02,05,12,10,10.70
2008,02,05,12,11,10.70
2008,02,05,12,12,10.50
2008,02,05,12,13,12.00
2008,02,05,12,14,6.60
2008,02,05,12,15,16.70
2008,02,05,12,16,11.20
2008,02,05,12,17,10.70
2008,02,05,12,18,9.20
2008,02,05,12,19,7.80
2008,02,05,12,20,14.80
2008,02,05,12,21,11.90
2008,02,05,12,22,13.80
2008,02,05,12,23,13.40
2008,02,05,12,24,7.60
2008,02,05,12,25,11.00
2008,02,05,12,26,10.80
2008,02,05,12,27,8.70
2008,02,05,12,28,8.00
2008,02,05,12,29,9.90
2008,02,05,12,30,9.50
2008,02,05,12,31,9.00
2008,02,05,12,32,8.30
2008,02,05,12,33,8.70
2008,02,05,12,34,11.50
2008,02,05,12,35,11.50
2008,02,05,12,36,9.50
2008,02,05,12,37,9.00
2008,02,05,12,38,6.60
2008,02,05,12,39,11.80
2008,02,05,12,40,8.00
2008,02,05,12,41,4.20
2008,02,05,12,42,4.30
2008,02,05,12,43,4.10
2008,02,05,12,44,4.60
2008,02,05,12,45,6.00
2008,02,05,12,46,8.70
2008,02,05,12,47,6.30
2008,02,05,12,48,6.90
2008,02,05,12,49,7.30
2008,02,05,12,50,6.80
2008,02,05,12,51,6.80
2008,02,05,12,52,7.40
2008,02,05,12,53,5.10
2008,02,05,12,54,7.20
2008,02,05,12,55,10.60
2008,02,05,12,56,9.50
2008,02,05,12,57,10.30
2008,02,05,12,58,13.00
2008,02,05,12,59,11.40
2008,02,05,13,00,9.90
2008,02,05,13,01,11.30
2008,02,05,13,02,9.70
2008,02,05,13,03,12.40
2008,02,05,13,04,19.30
2008,02,05,13,05,12.40
2008,02,05,13,06,10.00
2008,02,05,13,07,10.80
2008,02,05,13,08,9.70
2008,02,05,13,09,16.60
2008,02,05,13,10,16.00
2008,02,05,13,11,6.40
2008,02,05,13,12,8.00
2008,02,05,13,13,6.80
2008,02,05,13,14,9.80
2008,02,05,13,15,12.70
2008,02,05,13,16,7.80
2008,02,05,13,17,9.70
2008,02,05,13,18,8.10
2008,02,05,13,19,10.10
2008,02,05,13,20,10.50
2008,02,05,13,21,11.90
2008,02,05,13,22,9.10
2008,02,05,13,23,15.20
2008,02,05,13,24,8.80
2008,02,05,13,25,9.90
2008,02,05,13,26,8.80
2008,02,05,13,27,7.50
2008,02,05,13,28,10.70
2008,02,05,13,29,9.70
2008,02,05,13,30,6.80
2008,02,05,13,31,11.30
2008,02,05,13,32,13.60
2008,02,05,13,33,14.90
2008,02,05,13,34,8.10
2008,02,05,13,35,10.70
2008,02,05,13,36,17.30
2008,02,05,13,37,14.30
2008,02,05,13,38,13.30
2008,02,05,13,39,14.50
2008,02,05,13,40,11.40
2008,02,05,13,41,14.80
2008,02,05,13,42,9.70
2008,02,05,13,43,9.40
2008,02,05,13,44,7.80
2008,02,05,13,45,10.60
2008,02,05,13,46,11.40
2008,02,05,13,47,12.40
2008,02,05,13,48,13.60
2008,02,05,13,49,8.70
2008,02,05,13,50,6.30
2008,02,05,13,51,9.50
2008,02,05,13,52,7.60
2008,02,05,13,53,9.70
2008,02,05,13,54,9.40
2008,02,05,13,55,5.20
2008,02,05,13,56,5.00
2008,02,05,13,57,7.30
2008,02,05,13,58,6.50
2008,02,05,13,59,9.00
2008,02,05,14,00,13.40
2008,02,05,14,01,8.00
2008,02,05,14,02,7.70
2008,02,05,14,03,7.50
2008,02,05,14,04,16.00
2008,02,05,14,05,11.70
2008,02,05,14,06,7.70
2008,02,05,14,07,12.20
2008,02,05,14,08,11.30
2008,02,05,14,09,16.10
2008,02,05,14,10,16.10
2008,02,05,14,11,12.00
2008,02,05,14,12,10.20
2008,02,05,14,13,13.00
2008,02,05,14,14,18.00
2008,02,05,14,15,16.40
2008,02,05,14,16,11.30
2008,02,05,14,17,13.40
2008,02,05,14,18,26.40
2008,02,05,14,19,21.40
2008,02,05,14,20,21.40
2008,02,05,14,21,11.90
2008,02,05,14,22,15.00
2008,02,05,14,23,16.50
2008,02,05,14,24,15.50
2008,02,05,14,25,12.90
2008,02,05,14,26,16.90
2008,02,05,14,27,17.60
2008,02,05,14,28,17.90
2008,02,05,14,29,21.90
2008,02,05,14,30,21.30
2008,02,05,14,31,14.00
2008,02,05,14,32,25.70
2008,02,05,14,33,20.40
2008,02,05,14,34,25.10
2008,02,05,14,35,28.40
2008,02,05,14,36,31.00
2008,02,05,14,37,27.10
2008,02,05,14,38,19.60
2008,02,05,14,39,30.00
2008,02,05,14,40,36.20
2008,02,05,14,41,31.60
2008,02,05,14,42,24.70
2008,02,05,14,43,16.20
2008,02,05,14,44,12.30
2008,02,05,14,45,20.30
2008,02,05,14,46,14.40
2008,02,05,14,47,18.80
2008,02,05,14,48,18.20
2008,02,05,14,49,28.60
2008,02,05,14,50,25.70
2008,02,05,14,51,20.10
2008,02,05,14,52,30.40
2008,02,05,14,53,24.60
2008,02,05,14,54,20.80
2008,02,05,14,55,21.30
2008,02,05,14,56,21.90
2008,02,05,14,57,29.80
2008,02,05,14,58,31.20
2008,02,05,14,59,14.50
2008,02,05,15,00,28.10
2008,02,05,15,01,29.00
2008,02,05,15,02,21.20
2008,02,05,15,03,28.90
2008,02,05,15,04,20.10
2008,02,05,15,05,29.40
2008,02,05,15,06,35.40
2008,02,05,15,07,38.50
2008,02,05,15,08,29.40
2008,02,05,15,09,27.80
2008,02,05,15,10,27.20
2008,02,05,15,11,28.90
2008,02,05,15,12,16.70
2008,02,05,15,13,25.10
2008,02,05,15,14,24.60
2008,02,05,15,15,27.90
2008,02,05,15,16,20.30
2008,02,05,15,17,23.50
2008,02,05,15,18,19.70
2008,02,05,15,19,23.00
2008,02,05,15,20,18.90
2008,02,05,15,21,23.50
2008,02,05,15,22,17.30
2008,02,05,15,23,20.40
2008,02,05,15,24,23.80
2008,02,05,15,25,22.40
2008,02,05,15,26,24.40
2008,02,05,15,27,24.90
2008,02,05,15,28,26.80
2008,02,05,15,29,20.70
2008,02,05,15,30,34.20
2008,02,05,15,31,22.90
2008,02,05,15,32,17.60
2008,02,05,15,33,20.20
2008,02,05,15,34,22.00
2008,02,05,15,35,18.20
2008,02,05,15,36,20.90
2008,02,05,15,37,25.20
2008,02,05,15,38,24.10
2008,02,05,15,39,30.90
2008,02,05,15,40,22.30
2008,02,05,15,41,19.60
2008,02,05,15,42,15.40
2008,02,05,15,43,16.30
2008,02,05,15,44,15.50
2008,02,05,15,45,18.50
2008,02,05,15,46,17.30
2008,02,05,15,47,13.20
2008,02,05,15,48,10.20
2008,02,05,15,49,18.60
2008,02,05,15,50,9.60
2008,02,05,15,51,15.40
2008,02,05,15,52,20.70
2008,02,05,15,53,18.10
2008,02,05,15,54,28.40
2008,02,05,15,55,17.70
2008,02,05,15,56,13.70
2008,02,05,15,57,6.20
2008,02,05,15,58,10.80
2008,02,05,15,59,20.70
2008,02,05,16,00,16.80
2008,02,05,16,01,21.30
2008,02,05,16,02,12.10
2008,02,05,16,03,14.80
2008,02,05,16,04,23.00
2008,02,05,16,05,25.10
2008,02,05,16,06,14.80
2008,02,05,16,07,21.10
2008,02,05,16,08,23.40
2008,02,05,16,09,26.40
2008,02,05,16,10,15.50
2008,02,05,16,11,9.90
2008,02,05,16,12,18.40
2008,02,05,16,13,21.40
2008,02,05,16,14,22.10
2008,02,05,16,15,23.70
2008,02,05,16,16,28.40
2008,02,05,16,17,25.80
2008,02,05,16,18,26.30
2008,02,05,16,19,18.10
2008,02,05,16,20,22.40
2008,02,05,16,21,12.60
2008,02,05,16,22,20.00
2008,02,05,16,23,15.40
2008,02,05,16,24,7.80
2008,02,05,16,25,7.70
2008,02,05,16,26,12.60
2008,02,05,16,27,24.70
2008,02,05,16,28,18.90
2008,02,05,16,29,23.20
2008,02,05,16,30,26.50
2008,02,05,16,31,28.20
2008,02,05,16,32,16.40
2008,02,05,16,33,18.70
2008,02,05,16,34,18.20
2008,02,05,16,35,11.00
2008,02,05,16,36,14.70
2008,02,05,16,37,18.50
2008,02,05,16,38,22.70
2008,02,05,16,39,22.50
2008,02,05,16,40,11.80
2008,02,05,16,41,12.50
2008,02,05,16,42,14.20
2008,02,05,16,43,19.00
2008,02,05,16,44,17.40
2008,02,05,16,45,20.10
2008,02,05,16,46,14.20
2008,02,05,16,47,15.40
2008,02,05,16,48,19.60
2008,02,05,16,49,17.30
2008,02,05,16,50,17.00
2008,02,05,16,51,13.00
2008,02,05,16,52,15.50
2008,02,05,16,53,16.10
2008,02,05,16,54,10.30
2008,02,05,16,55,22.50
2008,02,05,16,56,18.40
2008,02,05,16,57,19.40
2008,02,05,16,58,8.50
2008,02,05,16,59,17.50
2008,02,05,17,00,20.20
2008,02,05,17,01,17.20
2008,02,05,17,02,16.20
2008,02,05,17,03,10.60
2008,02,05,17,04,10.00
2008,02,05,17,05,10.10
2008,02,05,17,06,10.10
2008,02,05,17,07,14.10
2008,02,05,17,08,16.10
2008,02,05,17,09,21.80
2008,02,05,17,10,16.40
2008,02,05,17,11,14.30
2008,02,05,17,12,19.30
2008,02,05,17,13,17.20
2008,02,05,17,14,17.40
2008,02,05,17,15,15.20
2008,02,05,17,16,12.60
2008,02,05,17,17,18.90
2008,02,05,17,18,10.60
2008,02,05,17,19,11.40
2008,02,05,17,20,9.60
2008,02,05,17,21,13.30
2008,02,05,17,22,13.80
2008,02,05,17,23,8.10
2008,02,05,17,24,9.10
2008,02,05,17,25,12.30
2008,02,05,17,26,7.60
2008,02,05,17,27,12.80